Dewpoint
59 60 60 60 61 61 62 61 61 61 61 61 60 59 60 60 59 58 58 58 59 60 60 59 57 58 59 60 58 55 46 12 11 11 11 17 40 53 55 57 56 57 54 32 24 19 18 21 20 21 19 19 20 21 22 20 26 26 15 13 10 16 11 14 9 8 8 11 14 17 19 16 15 15 15 14 12 14 14 13 10 7 4 4 4 12 12 15
59 60 60 60 61 61 61 61 62 61 60 61 60 60 59 59 58 57 57 57 57 61 58 58 58 58 59 60 58 54 27 12 9 10 11 32 52 54 55 55 54 54 48 26 23 20 19 20 22 19 18 17 21 16 20 19 21 19 17 15 9 12 10 17 11 12 5 6 16 18 18 16 15 13 13 13 12 14 13 13 12 7 5 5 7 11 12 10
59 59 59 59 60 61 61 61 61 61 61 60 59 60 60 59 58 57 57 57 57 60 58 58 59 57 57 59 57 47 22 6 7 7 9 45 51 55 57 57 53 52 31 25 26 23 21 22 20 18 19 16 20 12 15 12 18 19 17 9 11 14 8 12 10 12 9 12 18 18 17 17 18 12 15 14 14 14 13 12 10 9 4 5 6 6 6 6
59 59 59 59 60 60 61 61 61 61 61 60 59 60 59 59 58 56 57 57 60 60 58 59 59 57 56 55 57 32 15 9 2 6 11 48 52 55 55 55 52 44 37 32 27 24 24 24 24 22 24 17 22 18 13 16 10 14 16 12 11 16 5 5 9 9 12 19 19 18 18 18 17 18 16 17 12 12 12 15 13 12 7 4 4 5 6 4
59 58 58 58 59 60 60 61 61 61 61 61 60 59 59 58 57 57 57 57 57 58 59 59 58 58 56 54 49 22 17 6 4 11 15 50 54 54 54 51 51 38 37 33 23 19 21 22 24 24 21 15 21 21 14 16 15 14 9 13 10 11 2 7 7 13 13 17 18 17 17 18 18 17 16 13 13 13 14 15 16 16 8 4 4 4 6 4
59 59 58 58 59 59 61 61 60 61 61 60 60 59 58 58 56 57 57 57 57 58 58 59 58 57 57 51 31 26 15 -4 14 12 46 48 53 52 55 46 47 33 23 18 19 18 16 17 18 22 21 17 16 14 12 17 17 8 7 7 9 9 3 6 9 10 16 16 16 16 17 18 17 16 16 13 14 16 20 19 20 17 9 5 6 5 6 5
59 58 58 59 59 59 60 60 61 61 59 58 58 59 58 56 56 56 57 57 58 58 58 58 58 58 54 47 32 13 9 9 12 14 43 50 51 49 49 41 41 27 22 18 18 17 18 16 18 23 21 17 14 14 17 12 17 12 6 8 6 8 6 8 7 10 12 15 14 16 19 17 16 17 15 13 14 18 20 19 19 19 13 10 5 6 6 6
58 59 58 58 58 58 58 59 59 60 59 59 60 60 58 56 56 56 57 58 58 57 57 58 57 55 48 30 23 14 12 11 10 20 39 46 28 24 34 24 19 21 17 19 19 17 17 14 13 24 19 15 13 14 19 11 16 13 9 10 5 6 7 13 14 15 16 17 16 16 15 14 15 14 13 14 15 14 13 16 17 13 9 7 5 7 8 8
59 58 58 57 57 58 58 58 59 60 59 59 60 60 60 57 56 56 57 58 58 58 56 59 57 54 47 28 19 11 8 9 13 18 22 19 17 17 16 14 17 15 16 15 18 17 14 17 21 17 13 19 21 20 21 12 9 15 12 9 6 7 8 10 12 15 16 15 15 14 14 14 15 16 10 12 12 12 11 10 10 7 6 5 5 7 8 8
58 58 57 57 57 58 58 58 58 59 60 60 60 60 58 57 57 57 57 58 58 55 55 57 58 47 30 22 20 8 9 12 16 18 18 19 16 14 13 15 14 15 15 15 17 19 13 15 10 17 19 18 21 19 22 19 9 20 16 12 6 7 8 7 10 14 13 16 14 10 11 13 13 13 8 12 11 15 9 9 8 6 5 5 5 8 9 9
58 58 57 57 58 58 58 57 58 59 59 59 58 58 57 56 56 56 57 58 56 57 56 52 49 31 19 18 14 8 11 14 21 13 17 19 15 13 13 14 15 14 16 17 17 17 20 16 19 22 26 16 21 18 20 18 17 13 13 15 14 17 9 10 11 13 10 11 13 11 11 12 12 13 10 12 12 11 8 8 7 6 5 5 5 6 8 9
58 57 57 57 58 58 58 57 58 58 58 58 58 56 56 56 55 56 57 55 56 57 57 54 47 18 17 12 12 11 14 15 19 14 17 18 17 18 19 17 16 16 17 17 18 18 20 21 24 24 16 21 16 19 18 24 16 15 16 9 11 17 10 10 7 8 9 8 13 12 10 9 10 10 11 14 12 10 7 7 7 6 5 5 5 6 7 8
58 57 57 58 58 58 57 57 57 57 56 56 55 55 56 56 56 56 57 54 56 55 55 52 43 31 25 15 12 14 16 16 16 15 16 19 18 18 16 14 15 17 17 18 18 20 28 26 19 19 27 20 18 12 19 21 20 19 17 14 12 16 10 8 14 10 8 9 12 11 6 8 9 10 12 10 9 7 7 6 6 6 5 5 5 6 6 7
58 57 57 58 57 57 57 56 56 56 55 55 55 55 56 56 56 56 57 54 56 57 54 49 28 24 24 11 12 15 24 17 15 14 15 20 15 14 17 18 14 16 18 18 19 22 24 22 20 23 29 23 18 25 18 20 20 9 15 19 8 6 10 8 13 11 9 13 12 13 4 4 6 8 10 11 8 6 6 6 6 6 5 5 6 6 6 6
57 57 57 58 57 57 56 56 56 56 56 57 56 55 55 55 55 56 54 52 55 54 54 44 28 26 18 12 12 18 44 16 14 14 15 18 18 17 17 18 14 13 16 18 18 20 21 25 19 18 16 23 24 17 17 18 18 20 6 10 17 5 14 15 21 14 8 11 15 13 8 6 6 7 9 10 8 6 6 5 5 5 5 5 5 5 5 5
57 57 57 56 56 55 55 56 56 57 56 56 55 55 54 55 54 55 55 52 52 55 41 26 30 19 15 12 9 28 14 13 14 15 15 20 19 18 18 18 16 13 15 14 17 18 20 20 18 18 20 20 19 16 15 14 8 17 7 2 5 11 12 12 12 16 17 12 15 11 5 6 5 7 10 8 7 5 5 6 5 5 4 4 4 4 4 5
56 57 57 57 55 55 56 56 56 56 55 55 54 55 52 54 54 54 52 48 41 34 19 19 25 31 13 13 13 12 12 14 16 16 16 21 19 20 17 9 10 16 20 14 16 17 18 17 22 16 22 16 20 18 5 13 11 12 15 7 8 7 10 11 16 16 16 11 10 13 11 8 7 8 10 6 6 5 5 5 6 5 5 4 4 3 3 3
57 57 57 55 55 55 56 56 56 55 55 56 54 56 44 49 48 43 39 40 41 34 34 34 29 22 8 12 8 11 16 17 17 16 18 20 23 23 22 21 22 18 19 12 12 14 18 17 20 10 17 17 14 17 13 -0 1 1 4 7 11 11 12 10 9 15 14 17 12 11 11 10 9 9 9 9 5 5 5 5 6 6 5 4 4 3 3 2
57 57 56 55 55 54 56 56 56 56 56 53 56 57 53 50 40 27 31 30 28 22 21 21 21 16 12 10 13 16 17 18 19 20 20 20 22 23 25 23 21 15 16 11 12 18 19 18 19 15 9 14 16 9 12 4 7 6 5 6 8 7 10 8 13 18 15 12 13 11 10 8 8 7 7 10 5 4 5 5 5 5 4 4 3 3 3 3
57 58 56 55 56 56 55 55 56 56 56 43 41 38 38 28 30 21 27 28 18 18 18 20 21 19 16 16 16 17 19 17 16 17 21 21 21 19 13 20 24 20 23 10 16 14 21 16 11 9 13 17 16 14 12 11 11 13 13 10 10 9 10 12 14 17 20 14 10 10 10 9 9 9 8 9 9 4 4 4 4 4 4 3 3 2 3 2
57 57 56 55 55 56 55 55 55 56 54 44 38 31 22 24 14 13 17 22 23 25 20 21 21 17 15 16 16 17 11 11 17 17 20 23 22 14 12 16 20 16 13 19 14 19 21 12 8 16 16 15 15 17 17 17 16 14 13 11 12 12 10 9 9 13 19 10 12 13 9 8 7 8 9 11 9 7 4 4 3 4 4 3 3 3 3 2
56 57 56 56 56 55 55 54 55 56 52 43 39 29 36 31 22 19 22 11 22 28 25 22 21 17 18 15 17 16 14 12 13 15 20 23 21 10 17 16 18 10 15 21 17 15 13 8 9 14 16 17 17 17 18 14 16 14 12 11 7 10 11 12 15 17 14 13 9 11 8 8 8 9 9 11 10 10 7 5 5 4 4 3 3 3 3 3
55 56 55 55 54 54 55 54 55 53 40 37 36 37 35 40 43 41 26 22 20 25 23 23 19 18 17 19 20 17 14 14 14 15 20 24 22 18 20 17 17 18 18 19 12 11 10 9 15 15 17 13 15 16 16 16 16 9 8 6 8 9 6 9 14 15 16 9 9 9 10 9 10 7 7 10 11 10 8 6 5 6 4 4 4 3 4 3
55 55 56 55 55 54 53 53 52 42 39 37 36 35 39 43 38 31 26 16 17 22 24 23 19 20 18 20 23 17 16 18 19 16 22 24 22 21 22 20 18 18 15 19 16 14 8 11 20 20 18 12 11 12 8 9 7 13 7 7 6 6 5 6 7 11 13 15 16 13 12 8 6 4 3 7 9 12 12 11 10 8 7 6 6 5 5 3
55 54 54 55 54 54 52 50 44 40 38 34 37 40 41 42 41 33 26 20 16 19 28 26 23 19 20 25 27 20 19 21 20 21 23 23 24 24 22 24 19 12 16 19 16 13 10 14 19 13 14 13 10 9 8 7 6 10 12 8 8 6 5 5 6 9 7 6 10 9 6 5 5 6 5 5 8 7 10 11 11 12 11 8 6 5 5 7
55 54 55 55 54 51 52 38 36 42 35 33 34 40 42 41 41 32 20 15 3 16 20 14 23 16 20 20 20 23 21 19 20 20 33 22 31 22 22 18 20 13 17 17 12 12 13 17 18 13 11 13 9 7 7 7 5 5 10 11 8 8 8 8 8 7 4 0 2 10 2 5 6 5 6 6 6 5 6 8 7 9 11 11 10 9 7 6
55 55 54 53 51 52 29 30 31 35 24 25 43 44 44 43 43 32 15 11 -0 14 15 21 19 18 24 24 21 23 13 14 19 23 19 24 21 27 17 16 18 21 23 17 16 9 17 13 10 12 10 12 7 5 6 11 8 10 10 10 10 10 9 8 8 7 8 13 13 6 4 1 5 5 6 6 5 5 6 7 7 7 8 12 11 10 10 9
55 55 54 53 53 46 27 35 35 35 23 37 42 44 43 43 40 33 20 -8 -13 20 15 17 19 24 24 27 23 17 15 20 13 16 24 26 26 23 20 17 15 18 21 15 4 12 12 8 9 8 10 6 5 5 6 9 6 11 12 13 10 10 9 10 9 9 9 5 7 4 5 1 1 4 5 5 4 5 6 7 9 10 10 10 9 10 10 10
55 55 54 55 53 50 39 33 30 27 38 45 42 43 43 35 32 21 7 -5 -3 19 25 21 26 17 22 21 17 22 23 22 14 19 25 22 21 18 16 19 22 21 20 16 14 14 15 9 13 9 7 7 7 6 10 9 7 12 14 15 14 16 15 12 10 8 5 3 1 4 3 0 5 5 6 5 4 4 7 9 10 11 11 11 13 12 11 11
54 55 55 51 43 41 40 39 42 43 43 41 42 40 34 29 21 18 -3 -13 18 3 22 22 19 20 18 14 13 21 17 18 25 24 19 16 14 23 23 25 20 17 13 20 17 16 15 27 25 11 7 9 8 11 11 10 10 16 13 7 13 8 11 10 8 4 2 -4 3 5 5 4 4 6 6 4 6 13 10 9 9 12 12 12 12 12 12 12
53 54 53 49 36 38 32 27 32 43 43 43 39 35 29 21 16 4 -10 9 16 17 20 18 16 24 18 15 11 18 18 19 20 20 13 21 16 21 21 14 23 17 17 18 10 14 16 17 17 22 25 15 10 9 17 15 15 9 6 5 9 7 6 4 7 4 -1 0 5 5 3 4 -0 5 7 9 13 11 11 12 12 11 12 13 13 13 13 12
50 49 51 48 45 41 30 27 41 44 43 40 34 29 23 11 7 -2 -1 19 10 16 7 10 19 19 19 17 15 15 14 17 20 20 14 15 13 14 12 13 11 4 11 11 11 14 11 13 16 14 28 12 10 6 12 14 14 11 8 8 5 4 4 -2 2 1 -4 1 3 4 4 5 3 5 7 9 10 12 14 12 12 12 12 13 13 13 14 13
50 50 47 44 44 39 40 43 43 44 40 37 30 26 17 13 -3 9 4 10 3 19 17 17 15 19 18 10 10 13 19 11 18 19 19 17 11 9 15 16 15 8 1 11 10 9 14 16 14 14 13 21 8 6 6 7 7 7 6 4 2 1 -6 -4 0 -4 -2 6 7 4 3 4 6 7 10 9 9 11 13 16 15 13 13 13 13 13 13 13
49 44 37 42 42 40 41 43 42 41 36 36 22 18 16 -1 2 24 6 12 6 21 21 18 18 15 15 9 8 17 8 16 18 17 16 11 9 5 9 13 17 15 12 11 7 6 2 7 7 13 10 11 7 7 6 7 6 5 6 5 1 2 -0 -1 -4 -2 3 6 7 6 -1 5 2 15 12 11 11 12 13 14 15 15 15 14 14 14 14 14
50 44 41 38 36 37 41 40 40 40 35 29 21 20 5 8 7 4 8 14 12 18 15 20 14 8 6 14 14 19 10 9 18 15 14 8 6 5 5 7 10 15 14 7 8 5 6 7 8 13 11 8 6 11 10 7 6 8 7 10 5 0 7 1 -3 -5 -5 0 3 -2 5 6 9 11 11 10 11 13 12 13 14 13 13 13 13 13 13 13
45 40 38 32 35 33 38 41 38 35 28 21 19 8 8 9 1 10 9 17 20 11 13 10 11 4 8 11 10 15 20 12 12 11 10 11 9 7 9 9 10 14 12 4 6 3 8 5 13 11 9 6 6 14 9 9 3 6 6 0 4 11 7 -2 4 2 0 -5 1 -7 6 8 10 10 11 13 12 12 11 11 10 10 10 10 9 10 10 10
37 36 24 31 29 33 39 38 38 33 26 20 18 7 15 14 13 12 32 16 13 15 5 2 10 3 1 2 8 11 15 15 12 6 4 11 8 10 13 14 14 15 14 11 5 10 2 6 13 8 7 11 12 14 13 12 10 8 -0 3 8 8 9 5 -2 -6 -10 -2 2 2 3 8 7 7 14 11 11 11 12 12 11 11 10 9 9 9 9 9
35 33 27 28 28 38 39 39 33 29 28 21 7 29 19 13 18 23 25 20 19 14 5 1 4 8 4 5 7 9 9 8 16 5 4 11 3 12 13 12 17 14 14 16 9 6 15 6 12 12 11 13 11 11 8 9 14 6 6 8 6 -1 2 6 -3 -1 -1 0 2 -0 -2 3 6 10 11 11 11 11 11 12 12 12 11 11 11 10 10 10
36 29 18 21 35 40 40 37 31 29 24 14 8 10 21 16 25 24 25 24 23 12 5 7 0 8 9 6 6 8 8 6 11 10 2 5 5 9 10 14 14 19 19 15 11 12 12 2 9 12 10 11 9 10 8 7 7 10 10 7 9 8 0 -0 1 1 2 3 0 5 -1 6 10 12 12 10 14 13 12 12 11 11 11 11 11 11 10 10
32 27 21 26 38 38 38 38 33 24 19 13 15 14 20 17 23 26 26 25 19 10 10 8 12 6 10 12 8 4 10 8 9 10 3 5 8 11 11 15 13 17 17 14 10 15 9 10 2 10 11 12 8 8 9 7 5 4 5 2 4 -2 8 6 -1 2 4 -4 -6 -4 3 7 8 13 11 13 12 12 12 11 11 11 12 12 11 11 11 11
32 28 27 33 38 39 35 28 22 18 15 18 20 16 24 22 24 24 27 27 25 24 17 11 12 9 8 8 4 11 13 12 10 8 8 8 9 4 17 15 15 13 16 11 10 11 6 9 7 9 8 8 8 12 9 8 9 9 10 8 11 4 1 1 6 -2 -4 -0 -1 -6 5 8 10 11 11 11 11 11 11 11 11 12 11 11 10 11 11 11
21 11 21 30 38 33 28 15 15 23 19 18 14 23 25 31 21 21 25 23 21 16 20 18 19 12 14 10 8 13 13 11 12 9 9 6 11 8 18 17 17 15 11 8 8 12 11 9 8 7 8 7 9 9 12 9 9 10 10 11 9 4 5 -0 -0 3 -2 1 -6 -5 -4 6 10 11 11 10 10 10 10 10 10 10 10 10 10 11 12 12
24 18 27 35 36 29 22 10 22 19 15 21 24 24 23 24 18 20 22 21 20 20 20 19 19 16 15 11 12 13 12 6 11 9 11 12 10 15 20 19 18 15 17 10 9 9 24 4 1 6 9 8 9 8 10 9 6 5 6 8 7 3 8 10 6 2 1 -4 -2 -6 -1 7 8 12 11 10 11 11 10 10 10 11 11 11 12 12 12 13
26 26 23 32 34 32 21 11 7 7 15 23 24 24 23 25 22 20 22 22 17 17 18 19 16 16 13 19 14 10 12 4 8 7 8 17 13 22 20 20 19 14 9 8 11 13 4 10 7 2 3 5 7 9 10 12 6 5 3 6 5 1 0 -2 -2 -6 1 4 7 2 5 7 9 10 10 10 10 10 11 12 12 12 13 13 13 13 13 14
24 25 26 30 30 24 16 21 13 9 18 20 18 20 20 20 21 21 22 19 21 18 17 17 17 19 19 19 16 18 15 6 6 9 11 13 12 22 20 18 17 15 21 22 22 19 5 10 4 1 -0 2 3 4 6 3 4 7 5 7 6 3 2 2 3 -3 -0 2 5 -2 5 7 9 10 10 10 11 12 12 12 13 13 13 13 13 13 14 14
22 9 22 20 23 25 25 25 23 20 16 14 12 14 19 17 21 23 22 21 22 21 20 19 20 20 18 14 13 14 14 15 8 6 7 7 10 18 23 19 21 21 24 28 22 12 3 7 9 8 8 7 9 11 14 17 9 5 5 4 5 3 4 -0 2 -1 5 2 5 6 8 8 8 9 10 11 11 12 12 12 12 12 13 13 14 14 14 15
22 5 18 11 18 19 18 22 22 17 12 19 7 13 9 15 16 14 21 19 21 19 19 19 19 12 12 13 11 13 16 13 14 10 8 6 7 16 19 20 21 23 29 26 20 6 0 2 7 8 9 11 10 9 10 12 8 8 7 9 6 3 3 5 5 7 7 3 6 8 8 8 9 10 10 11 11 11 12 12 12 13 13 14 14 14 20 16
8 12 24 23 11 15 12 10 23 21 19 15 9 16 12 15 14 9 15 20 23 22 14 12 18 17 14 13 9 3 9 13 10 5 7 7 12 13 16 19 19 23 23 17 13 8 3 1 2 4 5 9 10 9 9 9 9 9 10 10 10 6 4 4 6 9 7 6 7 8 9 10 10 10 11 11 11 11 12 12 13 14 14 14 14 15 15 16
21 21 22 23 17 20 16 18 24 23 21 19 23 17 13 15 12 14 14 18 18 18 15 8 9 16 17 18 9 7 13 2 4 6 6 4 7 8 6 9 22 24 16 14 11 0 5 6 2 3 6 8 9 10 10 10 10 10 11 10 10 9 8 8 9 9 8 8 9 9 9 9 10 10 11 12 12 13 13 14 14 14 14 15 15 16 16 17
15 14 10 23 23 21 21 20 22 19 16 18 11 14 14 16 14 16 17 16 10 14 20 11 14 18 19 19 14 7 12 8 5 6 8 7 3 8 5 11 15 22 18 12 7 9 7 7 11 5 3 8 8 9 8 10 9 8 8 8 9 9 10 10 9 9 9 9 9 10 9 10 11 12 13 13 14 14 14 14 14 14 15 16 17 17 17 17
27 22 23 19 14 18 21 19 18 16 12 13 10 14 19 18 16 17 16 19 13 12 18 14 17 22 21 20 18 15 16 16 12 13 14 9 10 16 8 7 20 16 15 12 6 7 5 5 -2 -1 2 8 8 7 7 8 8 7 8 9 10 9 6 8 6 10 7 9 10 8 8 11 13 13 13 13 13 13 13 14 15 15 16 17 18 17 18 19
27 27 26 22 6 20 19 16 19 13 10 16 17 16 18 18 21 19 14 19 23 22 21 19 21 17 18 18 17 19 20 20 21 21 19 14 17 19 16 15 18 18 14 10 7 5 3 0 1 -0 3 7 8 7 7 7 8 6 5 8 10 10 10 10 11 12 11 10 9 10 11 12 12 13 13 13 13 14 15 16 16 16 17 18 18 18 20 21